Regional Weather Roundup
Issued by NWS Pendleton, OR

Home | Current Version | Previous Version | Text Only | Print | Product List | Glossary On
Versions: 1 2 3 4 5 6 7 8 9 10 11 12 13 14 15 16 17 18 19 20 21 22 23 24 25 26 27 28 29 30 31 32 33 34 35 36 37 38 39 40 41 42 43 44 45 46 47 48 49 50
000
ASUS46 KPDT 281325
RWRPDT
PENDLETON REGIONAL WEATHER ROUNDUP
NATIONAL WEATHER SERVICE PENDLETON OREGON
600 AM PDT TUE JUL 28 2015

NOTE: FAIR INDICATES FEW OR NO CLOUDS BELOW 12,000 FEET WITH NO
SIGNIFICANT WEATHER AND/OR OBSTRUCTIONS TO VISIBILITY.

# INDICATES UNOFFICIAL STATION AND DATA

WAZ520-281410-
EAST SLOPES OF WASHINGTON CASCADES

CITY            SKY/WX      TMP DP  RH  WIND    PRES   REMARKS
#BULLFROG 2SW   N/A         53  45  74  W1      27.84S
#BUMPING DAM    N/A         41  N/A N/A CALM    N/A
#CLE ELUM HS    N/A         50  43  77  CALM    30.18R
#CLE ELUM LAKE  N/A         51  43  74  CALM    30.16S
#CLIFFDEL 2NW   N/A         45  41  86  N1      N/A
#GLENWOOD       N/A         38  36  92  CALM    30.21R
#MANASTASH CYN  N/A         53  38  57  CALM    30.19R
#NELSON         N/A         54  48  80  CALM    30.20S
#NELSON 3SW     N/A         52  42  69  CALM    30.38R
#NILE           N/A         46  43  89  CALM    29.48R
#RONALD 2NW     N/A         52  29  41  CALM    30.11S
#SNOWDEN        N/A         42  34  73  CALM    N/A
#TEANAWAY 4NE   N/A         46  41  83  CALM    N/A
#TROUT LAKE 1NE N/A         42  39  89  CALM    30.19R
$$

WAZ521-281410-
SIMCOE HIGHLANDS

CITY            SKY/WX      TMP DP  RH  WIND    PRES   REMARKS
#BICKLETON HS   N/A         48  30  49  CALM    N/A
#CENTERVILLE 4W N/A         52  45  77  N2      29.97R
#CENTERVILLE 1SWN/A         45  39  79  CALM    30.17R
#GOLDENDALE     N/A         45  37  73  E2      N/A
#GOLDENDALE 1NE N/A         45  28  51  VRB3    N/A
#GOLDENDALE 5WNWN/A         46  39  76  NE1     30.18R
#GOODNOE HILLS  N/A         56  46  69  NW7     N/A
#LYLE 6NE       N/A         52  48  86  CALM    30.16R
$$

WAZ026-281410-
KITTITAS VALLEY

CITY            SKY/WX      TMP DP  RH  WIND    PRES   REMARKS
ELLENSBURG AP   PTCLDY      58  43  57  NW13    30.21R
YTC-OPS AREA    N/A         52  42  69  W26G33  30.20R
#ELLENSBURG CWU N/A         56  45  66  N6      30.13R
#ELLENSBURG 3NE N/A         56  45  66  N3      30.21R
#KITTITAS 3S    N/A         45  41  86  CALM    30.16R
#THORP 6N       N/A         53  44  71  NW13    30.18S
$$

WAZ027-281410-
YAKIMA VALLEY

CITY            SKY/WX      TMP DP  RH  WIND    PRES   REMARKS
SUNNYSIDE AP    CLEAR       46  42  86  CALM    30.21R
YAKIMA AIRPORT  PTCLDY      53  39  59  W6      30.22R
#DONALD 2NE     N/A         62  35  36  N2      29.04R
#GRANDVIEW      N/A         50  43  77  CALM    30.20R
#MABTON         N/A         51  42  71  E2      30.19R
#MOXEE 2E       N/A         55  37  51  CALM    30.14R
#NACHES 2SW     N/A         56  45  66  W6      30.21R
#OUTLOOK DOT    N/A         N/A N/A N/A W1      N/A
#SELAH 8E       N/A         48  40  74  SE5     N/A
#TERRACE HTS    N/A         57  43  59  CALM    30.13R
#TOPPENISH      N/A         54  43  66  CALM    30.09R
#WAPATO 4NE     N/A         62  35  36  N2      29.04R
#WEST VALLEY    N/A         58  42  55  CALM    30.16R
#WHITE SWAN 5E  N/A         47  41  79  NW1     30.19R
#WILEY CITY 3W  N/A         51  32  48  CALM    30.18R
$$

WAZ028-281410-
LOWER COLUMBIA BASIN...WASHINGTON

CITY            SKY/WX      TMP DP  RH  WIND    PRES   REMARKS
HANFORD         MOCLEAR     59  40  49  W8      30.18R
PASCO           CLEAR       53  45  74  E3      30.20R
RICHLAND AWOS   CLEAR       55  45  69  S3      30.19R
#BASIN CITY 5SW N/A         53  46  77  CALM    30.19R
#BENTON CITY    N/A         56  44  64  W2      30.09R
#CONNELL 5N     N/A         50  43  77  CALM    30.16R
#CONNELL 5NW    N/A         51  44  77  CALM    30.13R
#ELTOPIA 6NW    N/A         55  46  72  CALM    29.15R
#KAHLOTUS       N/A         55  43  64  W7      30.16R
#KENNEWICK      N/A         53  45  74  W1      27.84S
#KENNEWICK 3S   N/A         58  46  64  N3      30.16R
#PASCO-BROADMOORN/A         80  39  23  SW6     29.92S
#PATERSON       N/A         54  47  77  NE2     30.18R
#PROSSER        N/A         58  41  53  SW1     30.17R
#SAGEMOOR 2W    N/A         52  45  77  E1      30.02R
#TOUCHET 2S     N/A         52  42  69  CALM    30.17R
#WEST PASCO     N/A         54  45  71  CALM    30.22R
$$

WAZ029-281410-
FOOTHILLS OF THE BLUES...WASHINGTON

CITY            SKY/WX      TMP DP  RH  WIND    PRES   REMARKS
WALLA WALLA AP  CLEAR       56  41  57  SE5     30.21R
#DAYTON SCHOOL  N/A         52  38  59  CALM    30.20R
#LOWDEN 2SE     N/A         49  42  77  CALM    30.17R
#PLEASANT VIEW 1N/A         54  41  61  S6      30.20R
#PRESCOTT       N/A         45  40  82  CALM    30.19R
#SUDBURY        N/A         46  N/A N/A CALM    N/A
#WHITMAN COLLEGEN/A         58  44  60  S2      30.23R
#WAITSBURG 8N   N/A         54  22  28  S2      30.03F
#WALLA WALLA U  N/A         59  44  57  CALM    30.17R
#WHITMAN MISSIONN/A         53  45  74  CALM    30.20R
$$

WAZ030-281410-
BLUE MOUNTAINS...WASHINGTON

CITY            SKY/WX      TMP DP  RH  WIND    PRES   REMARKS
$$

ORZ009-041-WAZ024-281410-
COLUMBIA RIVER GORGE

CITY            SKY/WX      TMP DP  RH  WIND    PRES   REMARKS
HOOD RIVER AP   CLEAR       50  46  86  SW3     30.23S
THE DALLES AP   CLEAR       56  48  74  S3      30.21R
#ARLINGTON AIRPON/A         56  47  72  W3      29.82R
#MOSIER 1S      N/A         55  44  66  CALM    30.23S
#MURDOCK        N/A         62  54  75  NW9     30.22R

$$

ORZ510-281410-
NORTH CENTRAL OREGON

CITY            SKY/WX      TMP DP  RH  WIND    PRES   REMARKS
#CHENOWITH 1W   N/A         52  49  89  W15     N/A
#COW CYN RST AREN/A         51  N/A N/A S3      N/A
#DUFUR 9E       N/A         57  46  67  CALM    30.23R
#MAUPIN SCHOOL  N/A         51  42  71  CALM    30.24R
#MORO SCHOOL    N/A         48  45  89  CALM    30.24R
#SHANIKO 4NW    N/A         50  40  68  S5      30.26R
#TYGH VALLEY 2NEN/A         46  40  79  CALM    30.20R
#WAPANITIA AIRPON/A         49  44  83  CALM    30.21R
#WASCO AIRPORT  N/A         51  44  77  CALM    N/A
#WASCO 5NE      N/A         50  44  80  CALM    30.19R
$$

ORZ511-281410-
CENTRAL OREGON

CITY            SKY/WX      TMP DP  RH  WIND    PRES   REMARKS
BEND AIRPORT    CLEAR       43  36  76  SW6     30.28R
MADRAS AIRPORT  CLEAR       43  39  86  S7      30.28R
PRINEVILLE AP   CLEAR       36  32  85  CALM    30.27R
REDMOND AIRPORT CLEAR       39  34  82  CALM    30.27R
#BEND 1SW       N/A         39  33  79  E1      N/A
#BEND-AWBREY    N/A         47  40  76  CALM    30.18S
#BEND-KIM LN    N/A         44  37  76  S3      30.24S
#CROOKED RVR RANN/A         43  37  79  CALM    30.18R
#CULVER         N/A         45  39  79  CALM    30.22R
#LAKE BILLY CHINN/A         45  30  55  CALM    30.29R
#POWELL BUTTE 3EN/A         38  34  85  SW1     N/A
#POWELL BUTTE   N/A         45  38  76  S1      29.87S
#PRINEVILLE 3N  N/A         40  37  89  E1      30.17R
#WARM SPRINGS   N/A         48  40  74  CALM    30.22R

$$


ORZ509-281410-
EAST SLOPES OF OREGON CASCADES

CITY            SKY/WX      TMP DP  RH  WIND    PRES   REMARKS
#CAMP SHERMAN   N/A         33  30  89  CALM    30.27R
#LA PINE 4NW    N/A         29  25  85  CALM    30.24R
#SISTERS AIRPOR N/A         34  32  92  CALM    30.17S
#SISTERS 1NW    N/A         34  30  85  N6      N/A
#SISTERS 3N     N/A         34  24  66  CALM    30.37S
#SUNRIVER       N/A         37  34  89  CALM    30.09R
#TUMALO 3W      N/A         48  39  71  S5      30.07S
#WANOGA BUTTE D N/A         44  35  70  CALM    N/A

$$

ORZ044-281410-
LOWER COLUMBIA BASIN...OREGON

CITY            SKY/WX      TMP DP  RH  WIND    PRES   REMARKS
HERMISTON       CLEAR       50  43  77  E5      30.21R
#BOARDMAN SCHOOLN/A         55  44  66  CALM    30.22R
#BOARDMAN 8SW   N/A         54  45  71  SW6     30.18R
#ECHO 8SW       N/A         54  43  66  SW2     30.21R
#IONE SCHOOL    N/A         53  38  57  CALM    30.19R
#IRRIGON 4NW    N/A         52  45  77  S3      N/A
#UMATILLA       N/A         55  43  64  CALM    30.13R
$$

ORZ507-281410-
NORTHERN FOOTHILLS OF THE BLUES

CITY            SKY/WX      TMP DP  RH  WIND    PRES   REMARKS
PENDLETON AIRPT CLEAR       51  39  63  SE8     30.22R
#ADAMS 3WNW     N/A         40  34  79  CALM    30.19R
#ATHENA         N/A         50  39  66  CALM    30.21R
#CAYUSE         N/A         54  42  64  NE8     30.18R
#HELIX SCHOOL   N/A         43  35  73  S1      30.18R
#HELIX 3N       N/A         50  39  66  S3      30.18R
#HOLDMAN 5SE    N/A         49  39  68  CALM    30.22R
#HOLDMAN 6E     N/A         45  39  79  S2      30.00R
#M-FREEWATER 5SEN/A         55  43  64  CALM    30.21R
#PENDLETON DNTN N/A         50  33  52  NE2     30.19R
#PDT AQUATIC CTRN/A         53  34  48  CALM    30.18S
#PDT SUNRIDGE   N/A         50  39  66  CALM    30.23R
#PENDLETON 7NW  N/A         49  38  66  CALM    N/A
#PILOT ROCK     N/A         54  36  50  SE2     30.24R
#TUTUILLA       N/A         43  36  76  CALM    30.20R
#UMAPINE 2E     N/A         52  44  74  S1      30.18R
#WESTON SCHOOL  N/A         56  39  53  W1      30.11R

$$

ORZ508-281410-
SOUTHERN FOOTHILLS OF THE BLUES

CITY            SKY/WX      TMP DP  RH  WIND    PRES   REMARKS
#AJAX           N/A         54  38  55  S2      30.15R
#CONDON SCHOOL  N/A         48  41  77  CALM    30.19R
#CONDON 5W      N/A         51  40  66  SW6     30.22R
#FOSSIL SCHOOL  N/A         42  37  82  CALM    30.19R
#HEPPNER EOC    N/A         50  40  68  SE5     30.13R
#HEPPNER 4NE    N/A         53  42  66  CALM    30.18R
#LEXINGTON 2SE  N/A         51  42  71  SE5     30.22R
#OLEX 4N        N/A         52  43  71  SW3     30.19R
#RUGGS 5NE      N/A         50  41  71  SE1     30.40R
#RUGGS 2SW      N/A         50  40  68  SW2     30.20R

$$

ORZ502-503-281410-
BLUE MOUNTAINS

CITY            SKY/WX      TMP DP  RH  WIND    PRES   REMARKS
MEACHAM         CLEAR       32  30  92  CALM    30.27R
#HEPPNER 15SE   N/A         41  36  82  CALM    30.18R
#LONG CREEK HS  N/A         41  40  96  CALM    30.23R
#PIKES PEAK     N/A         54  39  57  SW13    27.99S
#TOLLGATE       N/A         41  38  89  CALM    30.12R
#TROY SCHOOL    N/A         49  40  71  W1      30.07R
#UKIAH          N/A         32  30  92  CALM    30.29R
#WESTON 4E      N/A         51  39  63  E3      30.14R
$$

ORZ505-281410-
JOHN DAY BASIN

CITY            SKY/WX      TMP DP  RH  WIND    PRES   REMARKS
JOHN DAY        CLEAR       46  35  65  E10     30.29R
#JOHN DAY KJDY  N/A         41  35  79  CALM    30.34R
#DAYVILLE SCHOOLN/A         47  35  63  CALM    30.22S
#MITCHELL       N/A         45  40  82  E2      30.40R
#MONUMENT HS    N/A         43  37  79  CALM    30.25R
#MT. VERNON 5SE N/A         44  35  70  CALM    30.23S
#WINLOCK        N/A         45  39  79  CALM    30.32R
$$

ORZ506-281410-
OCHOCO AND JOHN DAY HIGHLANDS

CITY            SKY/WX      TMP DP  RH  WIND    PRES   REMARKS
#BUCK CREEK DOT N/A         48  48  100 CALM    N/A
#HORSE RIDGE DO N/A         29  24  81  E1      N/A
#KEYES SMT DOT  N/A         45  37  73  N3      N/A
#PAULINA SCHOOL N/A         34  29  82  CALM    30.21R
#PINE MTN OBS   N/A         46  34  63  SE7     N/A
#PRAIRIE CITY   N/A         36  33  89  CALM    30.43R
#SENECA         N/A         31  N/A N/A CALM    N/A
#SENECA 9NW     N/A         29  26  88  CALM    30.21R
$$

ORZ049-281410-
GRANDE RONDE VALLEY

CITY            SKY/WX      TMP DP  RH  WIND    PRES   REMARKS
LA GRANDE       CLEAR       43  27  53  CALM    30.26R
#COVE           N/A         46  41  83  CALM    30.27R
#COVE SCHOOL    N/A         47  40  76  CALM    30.27R
#COVE 6NW       N/A         40  35  82  CALM    30.27R
#ELGIN 3N       N/A         38  33  82  CALM    30.23R
#ELGIN 1E       N/A         39  33  79  CALM    N/A
#IMBLER SCHOOL  N/A         41  36  82  NE6     30.20R
#ISLAND CITY 4N N/A         50  48  93  CALM    30.25R
#LA GRANDE ELEM N/A         49  39  68  CALM    30.26R
#UNION 1S       N/A         44  37  76  CALM    30.12R
$$

ORZ050-281410-
WALLOWA COUNTY

CITY            SKY/WX      TMP DP  RH  WIND    PRES   REMARKS
JOSEPH AIRPORT  CLEAR       41  36  82  CALM    30.29R
#IMNAHA SCHOOL  N/A         48  40  74  S2      30.25R
#IMNAHA 10S     N/A         46  36  68  SW3     30.24R
#JOSEPH 3N      N/A         36  29  75  NE1     30.27R
#JOSEPH 3W      N/A         48  38  68  CALM    30.09R
#LOSTINE        N/A         38  35  89  CALM    30.03R
#MT HOWARD 8000 N/A         38  33  82  NW1     30.37R
#PROMISE 1S     N/A         44  38  79  CALM    30.29R
#WALLOWA SCHOOL N/A         36  33  89  CALM    30.23R



$$



USA.gov is the U.S. government's official web portal to all federal, state and local government web resources and services.